Total_Precipitation_Accumulation
2.42 2.33 2.23 2.07 2.08 2.10 2.09 2.22 2.44 2.27 1.81 1.50 1.45 1.44 1.49 1.56 1.77 1.70 1.57 1.76 1.71 1.62 1.64 1.70 1.73 1.75 1.81 1.99 2.24 2.46 2.61 2.68 2.70 2.82 2.83 2.68 2.60 2.65
2.19 2.20 2.14 2.01 1.92 1.95 2.04 2.10 2.19 2.29 2.01 1.42 1.26 1.30 1.40 1.45 1.64 1.53 1.50 1.74 1.66 1.58 1.53 1.51 1.52 1.52 1.55 1.63 1.76 1.95 2.10 2.24 2.37 2.53 2.79 2.92 2.93 2.90
2.07 2.02 1.97 1.93 1.96 1.91 1.92 2.00 2.09 2.17 2.12 1.58 1.31 1.32 1.48 1.53 1.56 1.46 1.42 1.47 1.49 1.62 1.52 1.45 1.40 1.38 1.41 1.47 1.54 1.64 1.75 1.86 2.03 2.24 2.49 2.74 2.84 2.79
1.95 1.92 1.88 1.85 1.85 1.84 1.89 1.92 1.95 1.99 2.04 1.82 1.48 1.38 1.42 1.43 1.43 1.44 1.40 1.36 1.33 1.56 1.52 1.47 1.42 1.37 1.34 1.35 1.42 1.48 1.54 1.63 1.73 1.88 2.05 2.27 2.49 2.63
1.80 1.80 1.78 1.84 1.89 1.82 1.79 1.77 1.74 1.75 1.81 1.83 1.61 1.38 1.34 1.34 1.39 1.41 1.37 1.34 1.26 1.35 1.44 1.51 1.51 1.47 1.45 1.40 1.41 1.43 1.42 1.41 1.47 1.60 1.75 1.94 2.12 2.29
1.74 1.73 1.71 1.73 1.74 1.75 1.79 1.76 1.72 1.74 1.75 1.81 1.73 1.57 1.47 1.42 1.47 1.52 1.50 1.40 1.36 1.28 1.38 1.43 1.55 1.56 1.48 1.37 1.28 1.29 1.34 1.41 1.50 1.61 1.74 1.82 1.92 2.06
1.73 1.70 1.71 1.81 1.85 1.82 1.80 1.78 1.83 1.95 1.96 1.99 1.87 1.67 1.52 1.47 1.44 1.36 1.41 1.42 1.44 1.41 1.39 1.34 1.30 1.29 1.33 1.36 1.32 1.29 1.36 1.46 1.56 1.66 1.76 1.86 1.91 1.99
1.69 1.61 1.60 1.68 1.68 1.75 1.78 1.75 1.86 2.02 2.15 2.14 1.94 1.63 1.36 1.25 1.22 1.29 1.44 1.58 1.57 1.28 1.24 1.32 1.28 1.31 1.26 1.27 1.44 1.40 1.36 1.41 1.46 1.52 1.61 1.72 1.80 1.90
1.61 1.56 1.50 1.45 1.50 1.39 1.50 1.60 1.62 1.75 1.84 1.78 1.69 1.39 1.23 1.20 1.38 1.53 1.50 1.49 1.34 1.16 1.27 1.44 1.38 1.37 1.27 1.30 1.47 1.39 1.39 1.43 1.46 1.50 1.54 1.61 1.69 1.76
1.43 1.35 1.32 1.26 1.27 1.35 1.40 1.49 1.39 1.34 1.35 1.32 1.29 1.21 1.18 1.27 1.52 1.77 1.81 1.80 1.53 1.32 1.32 1.50 1.34 1.31 1.27 1.30 1.44 1.40 1.42 1.49 1.54 1.57 1.58 1.61 1.66 1.73
1.27 1.21 1.21 1.18 1.34 1.52 1.51 1.51 1.31 1.18 1.25 1.35 1.42 1.45 1.56 1.64 1.74 2.05 2.24 2.34 2.09 1.56 1.30 1.36 1.26 1.22 1.29 1.32 1.34 1.40 1.40 1.44 1.49 1.53 1.55 1.57 1.63 1.71
1.17 1.15 1.27 1.26 1.45 1.61 1.51 1.49 1.41 1.17 1.14 1.23 1.30 1.35 1.34 1.45 1.67 1.72 1.93 2.29 2.11 1.72 1.23 1.29 1.32 1.42 1.74 1.42 1.26 1.25 1.29 1.38 1.45 1.51 1.58 1.62 1.68 1.69
1.20 1.11 1.09 1.32 1.48 1.61 1.57 1.45 1.43 1.41 1.37 1.36 1.32 1.29 1.30 1.36 1.41 1.41 1.54 2.00 2.28 1.84 1.18 1.52 1.80 1.59 1.86 1.59 1.29 1.22 1.23 1.28 1.35 1.46 1.56 1.65 1.77 1.92
1.27 1.10 1.08 1.32 1.40 1.46 1.47 1.50 1.60 1.61 1.51 1.54 1.53 1.44 1.34 1.29 1.26 1.28 1.35 1.48 1.63 1.65 1.33 1.71 2.29 1.94 2.12 1.87 1.40 1.28 1.26 1.29 1.36 1.47 1.56 1.77 1.85 1.93
1.27 1.28 1.33 1.39 1.38 1.33 1.38 1.50 1.52 1.47 1.50 1.54 1.47 1.35 1.26 1.25 1.29 1.37 1.44 1.48 1.52 1.46 1.43 1.53 1.87 1.97 2.29 2.27 1.68 1.31 1.35 1.41 1.38 1.51 1.62 1.71 1.78 1.87
1.40 1.37 1.35 1.35 1.39 1.37 1.34 1.35 1.35 1.39 1.50 1.50 1.41 1.34 1.35 1.43 1.50 1.52 1.59 1.61 1.74 1.64 1.48 1.43 1.55 1.93 2.23 1.90 1.86 1.66 1.43 1.60 1.54 1.60 1.68 1.73 1.77 1.80
1.55 1.45 1.33 1.28 1.33 1.32 1.27 1.24 1.29 1.38 1.49 1.46 1.49 1.52 1.51 1.53 1.54 1.54 1.67 1.73 1.79 1.56 1.42 1.42 1.49 1.65 1.84 1.90 1.97 1.69 1.50 1.54 1.64 1.79 1.96 2.03 1.89 1.87
1.73 1.53 1.28 1.18 1.17 1.16 1.17 1.20 1.23 1.30 1.37 1.48 1.56 1.60 1.63 1.62 1.58 1.54 1.63 1.78 1.76 1.52 1.39 1.38 1.56 1.89 1.93 1.83 1.72 1.67 1.62 1.67 1.71 1.80 2.01 2.27 2.07 1.83
1.67 1.39 1.17 1.09 1.08 1.10 1.15 1.19 1.21 1.20 1.32 1.52 1.64 1.69 1.74 1.73 1.69 1.65 1.62 1.67 1.65 1.53 1.44 1.45 1.71 2.21 2.28 1.68 1.37 1.43 1.76 1.85 1.79 1.86 1.96 2.16 2.31 2.03
1.35 1.23 1.17 1.14 1.16 1.19 1.22 1.25 1.28 1.32 1.40 1.49 1.60 1.70 1.83 1.91 1.84 1.71 1.64 1.64 1.67 1.61 1.54 1.45 1.57 2.01 2.49 2.11 1.72 1.46 1.54 1.92 2.17 2.24 2.01 1.86 1.92 1.87
1.14 1.13 1.16 1.21 1.26 1.28 1.29 1.32 1.38 1.42 1.44 1.52 1.57 1.65 1.80 1.98 1.89 1.70 1.69 1.70 1.78 1.78 1.68 1.41 1.31 1.55 2.04 2.39 2.14 1.57 1.54 1.63 1.95 2.46 2.44 2.29 2.03 1.81
1.05 1.13 1.19 1.27 1.35 1.40 1.42 1.43 1.45 1.42 1.46 1.54 1.56 1.59 1.67 1.86 1.91 1.80 1.79 1.83 1.75 1.69 1.61 1.46 1.42 1.64 2.01 2.31 1.93 1.43 1.43 1.47 1.51 1.61 1.99 2.57 3.20 3.25
1.15 1.18 1.20 1.27 1.36 1.43 1.47 1.46 1.44 1.38 1.39 1.53 1.61 1.63 1.68 1.76 1.72 1.80 1.82 1.83 1.85 1.77 1.72 1.68 1.59 1.63 1.71 1.73 1.73 1.53 1.41 1.39 1.39 1.48 1.73 1.80 1.96 2.22